TimeEDT,TemperatureF,Dew PointF,Humidity,Sea Level PressureIn,VisibilityMPH,Wind Direction,Wind SpeedMPH,Gust SpeedMPH,PrecipitationIn,Events,Conditions,WindDirDegrees,DateUTC
12:53 AM,72.0,66.9,84,30.03,10.0,SW,4.6,-,N/A,,Clear,220,2013-05-24 04:53:00
1:53 AM,72.0,68.0,87,30.01,10.0,WSW,4.6,-,N/A,,Clear,240,2013-05-24 05:53:00
2:53 AM,71.1,69.1,93,30.00,10.0,SW,4.6,-,N/A,,Clear,220,2013-05-24 06:53:00
3:53 AM,72.0,69.1,91,30.00,10.0,West,3.5,-,N/A,,Clear,280,2013-05-24 07:53:00
4:53 AM,73.0,71.1,93,29.99,10.0,West,5.8,-,N/A,,Clear,280,2013-05-24 08:53:00
5:53 AM,72.0,70.0,93,30.00,10.0,WNW,4.6,-,N/A,,Clear,300,2013-05-24 09:53:00
6:53 AM,72.0,71.1,97,30.03,8.0,West,4.6,-,N/A,,Clear,270,2013-05-24 10:53:00
7:53 AM,75.0,72.0,90,30.04,10.0,WNW,6.9,-,N/A,,Partly Cloudy,300,2013-05-24 11:53:00
8:14 AM,75.2,71.6,89,30.04,10.0,WNW,8.1,-,N/A,,Mostly Cloudy,290,2013-05-24 12:14:00
8:53 AM,75.9,72.0,87,30.05,10.0,WNW,8.1,-,N/A,,Partly Cloudy,290,2013-05-24 12:53:00
9:53 AM,79.0,72.0,79,30.06,10.0,Calm,Calm,-,N/A,,Clear,0,2013-05-24 13:53:00
10:53 AM,84.0,70.0,63,30.06,10.0,WNW,5.8,-,N/A,,Clear,300,2013-05-24 14:53:00
11:53 AM,88.0,64.9,46,30.06,10.0,Variable,5.8,-,N/A,,Clear,0,2013-05-24 15:53:00
12:53 PM,90.0,62.1,39,30.06,10.0,NNW,9.2,-,N/A,,Clear,330,2013-05-24 16:53:00
1:53 PM,91.0,60.1,35,30.05,10.0,NW,8.1,17.3,N/A,,Clear,320,2013-05-24 17:53:00
2:53 PM,91.9,60.1,34,30.03,10.0,WNW,10.4,19.6,N/A,,Clear,290,2013-05-24 18:53:00
3:53 PM,91.9,59.0,33,30.02,10.0,Variable,6.9,16.1,N/A,,Mostly Cloudy,0,2013-05-24 19:53:00
4:53 PM,91.0,57.0,32,30.01,10.0,NW,5.8,18.4,N/A,,Scattered Clouds,310,2013-05-24 20:53:00
5:53 PM,91.0,57.9,33,30.01,10.0,Calm,Calm,-,N/A,,Scattered Clouds,0,2013-05-24 21:53:00
6:53 PM,84.9,64.9,51,30.01,10.0,East,12.7,-,N/A,,Mostly Cloudy,90,2013-05-24 22:53:00
7:53 PM,82.9,64.9,54,30.04,10.0,SE,9.2,-,N/A,,Mostly Cloudy,130,2013-05-24 23:53:00
8:53 PM,80.1,63.0,56,30.06,10.0,East,9.2,-,N/A,,Partly Cloudy,90,2013-05-25 00:53:00
9:53 PM,79.0,63.0,58,30.08,10.0,ENE,11.5,-,N/A,,Clear,70,2013-05-25 01:53:00
10:53 PM,77.0,63.0,62,30.10,10.0,ENE,8.1,-,N/A,,Clear,60,2013-05-25 02:53:00
11:53 PM,75.9,64.0,67,30.12,10.0,NE,9.2,-,N/A,,Clear,50,2013-05-25 03:53:00